Knox, IN

12:39 AM CST on February 23, 2017 (GMT -0600)
Starke County

Weather History for KOXI - April, 2013

Change the Weather History Date:

Tuesday, April 30, 2013

  Actual Average (KSBN) Record (KSBN)
Temperature  
Mean Temperature 69 °F -  
Max Temperature 82 °F 65 °F 91 °F (1942)
Min Temperature 56 °F 44 °F 26 °F (1931)
Cooling Degree Days 4    
Growing Degree Days 19 (Base 50)    
Moisture  
Dew Point 55 °F    
Average Humidity 62    
Maximum Humidity 83    
Minimum Humidity 35    
Precipitation  
Precipitation 0.00 in - - ()
Sea Level Pressure  
Sea Level Pressure 29.91 in    
Wind  
Wind Speed 14 mph (South)    
Max Wind Speed 20 mph    
Max Gust Speed 30 mph    
Visibility 10 miles    
Events      
Averages and records for this station are not official NWS values.
T = Trace of Precipitation, MM = Missing Value Source: NWS Daily Summary

Daily Weather History Graph

Daily Weather History Graph

Search for Another Location

Airport or City:

Trip Planner

Search our weather history database for the weather conditions in past years. The results will help you decide how hot, cold, wet, or windy it might be!

Date:

Astronomy

Apr. 30, 2013 Rise Set
Actual Time 5:45 AM CDT 7:43 PM CDT
Civil Twilight 5:15 AM CDT 8:13 PM CDT
Nautical Twilight 4:38 AM CDT 8:50 PM CDT
Astronomical Twilight 3:58 AM CDT 9:29 PM CDT
Moon 12:06 AM CDT (4/30) 10:12 AM CDT (4/30)
Length of Visible Light 14h 58m
Length of Day
13h 58m
Waning Gibbous, 70% of the Moon is Illuminated
Apr 30
Waning Gibbous
May 2
Last Quarter
May 9
New
May 17
First Quarter
May 24
Full

Hourly Weather History & Observations

Time (CDT) Temp. Heat Index Dew Point Humidity Pressure Visibility Wind Dir Wind Speed Gust Speed Precip Events Conditions
12:15 AM 59.2 °F - 52.9 °F 80% 29.88 in 10.0 mi SSE 10.4 mph - N/A   Clear
12:35 AM 59.4 °F - 52.7 °F 79% 29.89 in 10.0 mi SSE 11.5 mph - N/A   Clear
12:55 AM 59.4 °F - 52.3 °F 78% 29.88 in 10.0 mi SSE 13.8 mph - N/A   Clear
1:15 AM 59.4 °F - 52.0 °F 77% 29.88 in 10.0 mi South 12.7 mph - N/A   Clear
1:35 AM 58.8 °F - 51.8 °F 77% 29.88 in 10.0 mi South 11.5 mph - N/A   Clear
1:55 AM 58.6 °F - 51.8 °F 78% 29.89 in 10.0 mi South 12.7 mph - N/A   Clear
2:15 AM 58.5 °F - 51.6 °F 78% 29.89 in 10.0 mi South 13.8 mph - N/A   Clear
2:35 AM 58.1 °F - 51.6 °F 79% 29.88 in 10.0 mi South 13.8 mph - N/A   Clear
2:55 AM 58.1 °F - 51.3 °F 78% 29.88 in 10.0 mi South 12.7 mph - N/A   Clear
3:15 AM 58.1 °F - 51.1 °F 77% 29.88 in 10.0 mi South 13.8 mph - N/A   Clear
3:35 AM 58.3 °F - 51.1 °F 77% 29.88 in 10.0 mi South 13.8 mph 19.6 mph N/A   Clear
4:15 AM 57.6 °F - 51.1 °F 79% 29.89 in 10.0 mi South 13.8 mph - N/A   Clear
4:35 AM 57.4 °F - 51.1 °F 79% 29.89 in 10.0 mi South 11.5 mph - N/A   Clear
4:55 AM 57.4 °F - 50.9 °F 79% 29.90 in 10.0 mi South 11.5 mph - N/A   Clear
5:35 AM 56.7 °F - 51.1 °F 82% 29.89 in 10.0 mi South 12.7 mph - N/A   Clear
5:55 AM 56.7 °F - 51.4 °F 83% 29.88 in 10.0 mi South 16.1 mph - N/A   Clear
6:15 AM 56.8 °F - 51.4 °F 82% 29.88 in 10.0 mi South 16.1 mph - N/A   Clear
6:35 AM 57.2 °F - 51.6 °F 82% 29.88 in 10.0 mi South 15.0 mph - N/A   Clear
6:55 AM 58.5 °F - 51.3 °F 77% 29.89 in 10.0 mi South 19.6 mph 29.9 mph N/A   Clear
7:15 AM 59.0 °F - 51.1 °F 75% 29.90 in 10.0 mi South 19.6 mph 27.6 mph N/A   Clear
7:35 AM 59.2 °F - 51.4 °F 75% 29.90 in 10.0 mi South 16.1 mph 24.2 mph N/A   Scattered Clouds
7:55 AM 59.4 °F - 51.8 °F 76% 29.92 in 10.0 mi South 11.5 mph - N/A   Clear
8:15 AM 60.3 °F - 52.3 °F 75% 29.92 in 10.0 mi South 13.8 mph - N/A   Clear
8:35 AM 61.3 °F - 52.9 °F 74% 29.91 in 10.0 mi South 13.8 mph - N/A   Scattered Clouds
8:55 AM 62.4 °F - 53.1 °F 71% 29.92 in 10.0 mi South 12.7 mph 18.4 mph N/A   Mostly Cloudy
9:15 AM 63.9 °F - 53.6 °F 69% 29.92 in 10.0 mi South 12.7 mph - N/A   Scattered Clouds
9:35 AM 66.0 °F - 54.5 °F 66% 29.92 in 10.0 mi South 18.4 mph - N/A   Mostly Cloudy
9:55 AM 67.1 °F - 55.0 °F 65% 29.92 in 10.0 mi South 15.0 mph 21.9 mph N/A   Scattered Clouds
10:15 AM 68.2 °F - 55.2 °F 63% 29.92 in 10.0 mi SSW 17.3 mph - N/A   Clear
10:35 AM 69.6 °F - 55.9 °F 62% 29.92 in 10.0 mi South 13.8 mph - N/A   Clear
10:55 AM 70.3 °F - 55.9 °F 60% 29.92 in 10.0 mi South 16.1 mph - N/A   Clear
11:15 AM 70.5 °F - 56.1 °F 60% 29.92 in 10.0 mi South 16.1 mph 19.6 mph N/A   Clear
11:35 AM 72.5 °F - 56.7 °F 57% 29.92 in 10.0 mi South 15.0 mph 21.9 mph N/A   Clear
11:55 AM 74.1 °F - 57.2 °F 55% 29.92 in 10.0 mi SSW 15.0 mph - N/A   Clear
12:15 PM 74.8 °F - 57.2 °F 54% 29.91 in 10.0 mi South 15.0 mph - N/A   Clear
12:55 PM 75.4 °F - 57.4 °F 53% 29.91 in 10.0 mi South 13.8 mph - N/A   Clear
1:15 PM 76.3 °F - 57.6 °F 52% 29.90 in 10.0 mi South 17.3 mph 20.7 mph N/A   Clear
1:35 PM 76.8 °F - 57.4 °F 51% 29.90 in 10.0 mi South 16.1 mph 21.9 mph N/A   Clear
1:55 PM 78.6 °F - 56.7 °F 47% 29.90 in 10.0 mi South 18.4 mph - N/A   Clear
2:15 PM 79.3 °F - 55.6 °F 44% 29.90 in 10.0 mi South 17.3 mph 24.2 mph N/A   Clear
2:35 PM 79.9 °F - 55.0 °F 42% 29.90 in 10.0 mi SSE 16.1 mph 26.5 mph N/A   Clear
2:55 PM 80.6 °F 80.4 °F 54.9 °F 41% 29.89 in 10.0 mi South 18.4 mph - N/A   Clear
3:15 PM 81.3 °F 80.8 °F 54.0 °F 39% 29.89 in 10.0 mi South 15.0 mph - N/A   Clear
3:35 PM 81.9 °F 81.1 °F 53.8 °F 38% 29.89 in 10.0 mi South 17.3 mph 23.0 mph N/A   Clear
3:55 PM 82.0 °F - 52.3 °F 36% 29.88 in 10.0 mi South 17.3 mph 20.7 mph N/A   Clear
4:15 PM 82.0 °F - 52.3 °F 36% 29.88 in 10.0 mi South 16.1 mph 25.3 mph N/A   Clear
4:35 PM 82.4 °F - 52.7 °F 36% 29.88 in 10.0 mi South 11.5 mph - N/A   Clear
4:55 PM 82.2 °F - 52.0 °F 35% 29.89 in 10.0 mi South 15.0 mph - N/A   Clear
5:15 PM 81.9 °F 81.0 °F 53.4 °F 37% 29.90 in 10.0 mi South 13.8 mph 20.7 mph N/A   Clear
5:35 PM 81.3 °F 81.0 °F 55.6 °F 41% 29.90 in 10.0 mi South 13.8 mph - N/A   Clear
5:55 PM 80.4 °F 80.6 °F 56.8 °F 44% 29.91 in 10.0 mi SSE 16.1 mph 21.9 mph N/A   Clear
6:15 PM 79.7 °F - 56.7 °F 45% 29.91 in 10.0 mi South 15.0 mph - N/A   Clear
6:35 PM 79.2 °F - 57.0 °F 46% 29.92 in 10.0 mi South 15.0 mph - N/A   Clear
6:55 PM 78.4 °F - 57.2 °F 48% 29.93 in 10.0 mi South 15.0 mph 20.7 mph N/A   Clear
7:15 PM 77.5 °F - 57.0 °F 49% 29.93 in 10.0 mi South 16.1 mph - N/A   Clear
7:35 PM 76.6 °F - 56.5 °F 50% 29.93 in 10.0 mi South 15.0 mph 20.7 mph N/A   Clear
7:55 PM 75.6 °F - 56.7 °F 52% 29.94 in 10.0 mi South 11.5 mph 18.4 mph N/A   Clear
8:15 PM 74.3 °F - 57.2 °F 55% 29.95 in 10.0 mi SSE 9.2 mph - N/A   Clear
8:35 PM 72.5 °F - 58.1 °F 60% 29.95 in 10.0 mi SSE 10.4 mph - N/A   Clear
8:55 PM 71.8 °F - 58.5 °F 63% 29.96 in 10.0 mi SSE 11.5 mph - N/A   Clear
9:15 PM 71.1 °F - 58.5 °F 64% 29.96 in 10.0 mi SSE 10.4 mph - N/A   Clear
9:35 PM 70.2 °F - 58.5 °F 66% 29.97 in 10.0 mi SSE 10.4 mph - N/A   Clear
9:55 PM 70.0 °F - 58.1 °F 66% 29.98 in 10.0 mi SSE 11.5 mph - N/A   Clear
10:15 PM 70.2 °F - 57.6 °F 64% 29.98 in 10.0 mi SSE 12.7 mph - N/A   Clear
10:35 PM 70.2 °F - 57.6 °F 64% 29.98 in 10.0 mi SSE 11.5 mph - N/A   Clear
10:55 PM 69.8 °F - 57.4 °F 65% 29.98 in 10.0 mi South 10.4 mph - N/A   Clear
11:15 PM 69.4 °F - 57.2 °F 65% 29.98 in 10.0 mi South 11.5 mph - N/A   Clear
11:35 PM 68.9 °F - 56.8 °F 65% 29.98 in 10.0 mi South 10.4 mph - N/A   Clear
11:55 PM 68.5 °F - 56.5 °F 65% 29.99 in 10.0 mi SSE 11.5 mph - N/A   Clear